Location: Kikino
(54.4440°N, 112.0940°W)
Time: 17:23:14
(UTC+00:00)

A-11 Canister half - Pass Details

Date: 22 May 2024
Orbit: 1525 x 1683 km, 47.3° (Epoch: 12 June)

Event Time Altitude Azimuth Distance (km) Brightness Sun altitude
Rises 07:02:20 0° 253° (WSW) 4,715 11.4 -14.9°
Reaches altitude 10° 07:05:25 10° 249° (WSW) 3,749 10.9 -14.9°
Maximum altitude 07:14:37 57° 174° (S) 1,836 9.1 -15.0°
Drops below altitude 10° 07:24:09 10° 100° (E) 3,873 11.0 -15.1°
Sets 07:27:23 0° 97° (E) 4,880 11.6 -15.1°
